Cahokia, IL

11:57 PM CDT on July 20, 2017 (GMT -0500)
Saint Louis Downtown

Weather History for KCPS - November, 2012

Change the Weather History Date:

Wednesday, November 21, 2012

  Actual Average Record
Temperature  
Mean Temperature 50 °F -  
Max Temperature 62 °F 57 °F 66 °F (1942)
Min Temperature 37 °F 44 °F 13 °F (1964)
Degree Days  
Heating Degree Days 16    
Moisture  
Dew Point 42 °F    
Average Humidity 92    
Maximum Humidity 100    
Minimum Humidity 62    
Precipitation  
Precipitation 0.00 in - - ()
Sea Level Pressure  
Sea Level Pressure 30.22 in    
Wind  
Wind Speed 1 mph (SSE)    
Max Wind Speed 8 mph    
Max Gust Speed -    
Visibility 2 miles    
Events Fog    
Averages and records for this station are not official NWS values.
T = Trace of Precipitation, MM = Missing Value Source: NWS Daily Summary

Daily Weather History Graph

Daily Weather History Graph

Search for Another Location

Airport or City:

Trip Planner

Search our weather history database for the weather conditions in past years. The results will help you decide how hot, cold, wet, or windy it might be!

Date:

Astronomy

Nov. 21, 2012 Rise Set
Actual Time 6:49 AM CST 4:43 PM CST
Civil Twilight 6:20 AM CST 5:12 PM CST
Nautical Twilight 5:48 AM CST 5:44 PM CST
Astronomical Twilight 5:16 AM CST 6:16 PM CST
Moon 12:56 PM CST 12:13 AM CST
Length of Visible Light 10h 51m
Length of Day
9h 53m
First Quarter, 62% of the Moon is Illuminated
Nov 21
First Quarter
Nov 28
Full
Dec 6
Last Quarter
Dec 13
New
Dec 19
First Quarter

Hourly Weather History & Observations

Time (CST) Temp. Windchill Dew Point Humidity Pressure Visibility Wind Dir Wind Speed Gust Speed Precip Events Conditions
12:04 AM 42.8 °F - 42.8 °F 100% 30.20 in 1.8 mi Calm Calm - N/A   Clear
12:11 AM 44.6 °F - 42.8 °F 93% 30.20 in 2.0 mi Calm Calm - N/A   Clear
12:33 AM 42.8 °F - 41.0 °F 93% 30.21 in 2.0 mi Calm Calm - N/A   Clear
12:41 AM 39.2 °F - 39.2 °F 100% 30.21 in 1.8 mi Calm Calm - N/A   Clear
12:45 AM 39.2 °F - 37.4 °F 93% 30.21 in 0.8 mi Calm Calm - N/A   Mist
12:53 AM 41.0 °F - 39.0 °F 93% 30.21 in 0.5 mi Calm Calm - N/A Fog Fog
12:59 AM 39.2 °F - 39.2 °F 100% 30.21 in 1.2 mi Calm Calm - N/A   Partly Cloudy
1:10 AM 39.2 °F - 39.2 °F 100% 30.21 in 1.0 mi Calm Calm - N/A   Mist
1:20 AM 39.2 °F - 37.4 °F 93% 30.21 in 1.2 mi Calm Calm - N/A   Partly Cloudy
1:22 AM 39.2 °F - 37.4 °F 93% 30.21 in 0.8 mi Calm Calm - N/A   Mist
1:36 AM 39.2 °F - 37.4 °F 93% 30.21 in 0.2 mi Calm Calm - N/A Fog Fog
1:53 AM 37.9 °F - 37.9 °F 100% 30.21 in 0.2 mi Calm Calm - N/A Fog Fog
2:16 AM 37.4 °F - 35.6 °F 93% 30.22 in 0.5 mi Calm Calm - N/A Fog Fog
2:24 AM 37.4 °F - 37.4 °F 100% 30.22 in 0.2 mi Calm Calm - N/A Fog Fog
2:42 AM 37.4 °F 34.9 °F 37.4 °F 100% 30.22 in 0.2 mi North 3.5 mph - N/A Fog Fog
2:53 AM 39.9 °F - 39.0 °F 97% 30.23 in 0.2 mi Calm Calm - N/A Fog Fog
3:53 AM 43.0 °F 41.3 °F 42.1 °F 97% 30.23 in 0.2 mi NNE 3.5 mph - N/A Fog Fog
4:53 AM 43.0 °F - 42.1 °F 97% 30.24 in 0.2 mi Calm Calm - N/A Fog Fog
6:53 AM 42.1 °F - 42.1 °F 100% 30.27 in 0.2 mi Calm Calm - N/A Fog Fog
7:53 AM 42.1 °F - 41.0 °F 96% 30.29 in 0.2 mi Calm Calm - N/A Fog Fog
8:53 AM 43.0 °F - 42.1 °F 97% 30.29 in 0.2 mi Calm Calm - N/A Fog Fog
9:53 AM 44.1 °F - 44.1 °F 100% 30.30 in 0.2 mi Calm Calm - N/A Fog Fog
10:53 AM 46.0 °F - 45.0 °F 96% 30.30 in 0.2 mi Calm Calm - N/A Fog Fog
11:53 AM 48.0 °F - 46.9 °F 96% 30.27 in 0.5 mi Calm Calm - N/A Fog Fog
12:11 PM 48.2 °F - 48.2 °F 100% 30.26 in 1.0 mi South 3.5 mph - N/A   Overcast
1:11 PM 53.6 °F - 50.0 °F 88% 30.23 in 3.0 mi Calm Calm - N/A   Partly Cloudy
1:53 PM 59.0 °F - 50.0 °F 72% 30.22 in 6.0 mi Calm Calm - N/A   Haze
2:53 PM 62.1 °F - 48.9 °F 62% 30.20 in 7.0 mi Calm Calm - N/A   Clear
3:53 PM 59.0 °F - 50.0 °F 72% 30.19 in 6.0 mi SE 8.1 mph - N/A   Haze
4:53 PM 54.0 °F - 48.0 °F 80% 30.18 in 4.0 mi SSE 5.8 mph - N/A   Haze
5:53 PM 52.0 °F - 46.9 °F 83% 30.18 in 6.0 mi SSE 5.8 mph - N/A   Haze
6:53 PM 52.0 °F - 46.0 °F 80% 30.17 in 6.0 mi SSE 6.9 mph - N/A   Haze
7:53 PM 51.1 °F - 45.0 °F 80% 30.17 in 6.0 mi SSE 3.5 mph - N/A   Haze
8:53 PM 50.0 °F - 44.1 °F 80% 30.17 in 7.0 mi South 3.5 mph - N/A   Clear
10:53 PM 46.0 °F 44.8 °F 43.0 °F 89% 30.17 in 5.0 mi SSE 3.5 mph - N/A   Clear
11:53 PM 46.0 °F 44.8 °F 43.0 °F 89% 30.16 in 5.0 mi South 3.5 mph - N/A   Clear